• In Latvia
  • List of Countries
  • For 7 days
  • Water Temperature
  • Satellite Maps
  • Weather Map
  • Weather Widgets
  • user-avatar
    Login

    Hourly Weather Nagano

    Today, 22 May, Tuesday

    Time Temperature Precipitation Wind Pressure Humidity
    00:00 +11°C° 0 mm 1 mps 697 mmHg 60%
    01:00 +11°C° 0 mm 1 mps 697 mmHg 59%
    02:00 +11°C° 0 mm 1 mps 696 mmHg 59%
    03:00 +11°C° 0 mm 1 mps 696 mmHg 58%
    04:00 +11°C° 0 mm 1 mps 696 mmHg 58%
    05:00 +12°C° 0 mm 1 mps 697 mmHg 58%
    06:00 +13°C° 0 mm 1 mps 697 mmHg 58%
    07:00 +16°C° 0 mm 1 mps 697 mmHg 51%
    08:00 +20°C° 0 mm 1 mps 697 mmHg 44%
    09:00 +21°C° 0 mm 2 mps 698 mmHg 38%
    10:00 +23°C° 0 mm 2 mps 698 mmHg 36%
    11:00 +24°C° 0 mm 2 mps 698 mmHg 34%
    12:00 +25°C° 0 mm 2 mps 698 mmHg 32%
    13:00 +25°C° 0 mm 3 mps 697 mmHg 34%
    14:00 +25°C° 0 mm 3 mps 697 mmHg 35%
    15:00 +24°C° 0 mm 3 mps 696 mmHg 37%
    16:00 +23°C° 0 mm 2 mps 695 mmHg 43%
    17:00 +20°C° 0 mm 2 mps 695 mmHg 50%
    18:00 +19°C° 0 mm 2 mps 695 mmHg 56%
    19:00 +17°C° 0 mm 2 mps 695 mmHg 59%
    20:00 +16°C° 0 mm 1 mps 695 mmHg 63%
    21:00 +14°C° 0 mm 1 mps 694 mmHg 67%
    22:00 +13°C° 0 mm 1 mps 694 mmHg 69%
    23:00 +13°C° 0 mm 1 mps 694 mmHg 71%

    Tomorrow, 23 May, Wednesday

    Time Temperature Precipitation Wind Pressure Humidity
    00:00 +13°C° 0 mm 1 mps 694 mmHg 73%
    01:00 +12°C° 0 mm 1 mps 693 mmHg 74%
    02:00 +12°C° 0 mm 1 mps 693 mmHg 75%
    03:00 +12°C° 0 mm 1 mps 692 mmHg 77%
    04:00 +12°C° 0 mm 1 mps 692 mmHg 75%
    05:00 +13°C° 0 mm 1 mps 692 mmHg 74%
    06:00 +13°C° 0 mm 1 mps 692 mmHg 72%
    07:00 +15°C° 0.1 mm 2 mps 692 mmHg 67%
    08:00 +16°C° 0.1 mm 2 mps 691 mmHg 61%
    09:00 +17°C° 0.1 mm 2 mps 691 mmHg 56%
    10:00 +17°C° 0.5 mm 2 mps 691 mmHg 61%
    11:00 +16°C° 0.5 mm 2 mps 691 mmHg 66%
    12:00 +16°C° 0.5 mm 2 mps 690 mmHg 71%
    13:00 +16°C° 1.2 mm 2 mps 690 mmHg 75%
    14:00 +16°C° 1.2 mm 2 mps 689 mmHg 80%
    15:00 +15°C° 1.2 mm 2 mps 689 mmHg 85%
    16:00 +15°C° 2.1 mm 2 mps 688 mmHg 87%
    17:00 +15°C° 2.1 mm 1 mps 688 mmHg 90%
    18:00 +14°C° 2.1 mm 1 mps 687 mmHg 92%
    19:00 +14°C° 1.3 mm 1 mps 687 mmHg 92%
    20:00 +14°C° 1.3 mm 1 mps 687 mmHg 92%
    21:00 +14°C° 1.3 mm 1 mps 687 mmHg 92%
    22:00 +14°C° 0.7 mm 1 mps 687 mmHg 93%
    23:00 +14°C° 0.7 mm 1 mps 686 mmHg 93%

    Day after tomorrow, 24 May, Thursday

    Time Temperature Precipitation Wind Pressure Humidity
    00:00 +14°C° 0.7 mm 1 mps 686 mmHg 93%
    01:00 +14°C° 0.1 mm 1 mps 686 mmHg 94%
    02:00 +14°C° 0.1 mm 1 mps 686 mmHg 94%
    03:00 +14°C° 0.1 mm 2 mps 686 mmHg 95%
    04:00 +14°C° 0 mm 2 mps 686 mmHg 94%
    05:00 +14°C° 0 mm 2 mps 687 mmHg 93%
    06:00 +14°C° 0 mm 2 mps 687 mmHg 93%
    07:00 +15°C° 0 mm 2 mps 688 mmHg 83%
    08:00 +17°C° 0 mm 2 mps 688 mmHg 73%
    09:00 +18°C° 0 mm 2 mps 689 mmHg 63%
    10:00 +19°C° 0 mm 2 mps 689 mmHg 52%
    11:00 +21°C° 0 mm 3 mps 690 mmHg 42%
    12:00 +24°C° 0 mm 3 mps 690 mmHg 31%
    13:00 +24°C° 0 mm 3 mps 690 mmHg 30%
    14:00 +24°C° 0 mm 3 mps 690 mmHg 29%
    15:00 +24°C° 0 mm 3 mps 690 mmHg 29%
    16:00 +21°C° 0 mm 2 mps 690 mmHg 36%
    17:00 +21°C° 0 mm 1 mps 690 mmHg 44%
    18:00 +19°C° 0 mm 1 mps 690 mmHg 51%
    19:00 +18°C° 0 mm 1 mps 690 mmHg 53%
    20:00 +15°C° 0 mm 1 mps 690 mmHg 56%
    21:00 +13°C° 0 mm 1 mps 690 mmHg 58%
    22:00 +13°C° 0 mm 1 mps 690 mmHg 58%
    23:00 +13°C° 0 mm 1 mps 690 mmHg 58%

    25 May, Friday

    Time Temperature Precipitation Wind Pressure Humidity
    00:00 +12°C° 0 mm 1 mps 690 mmHg 58%
    01:00 +12°C° 0 mm 1 mps 690 mmHg 58%
    02:00 +12°C° 0 mm 1 mps 689 mmHg 57%
    03:00 +12°C° 0 mm 1 mps 689 mmHg 57%
    04:00 +13°C° 0 mm 1 mps 690 mmHg 57%
    05:00 +14°C° 0 mm 1 mps 690 mmHg 58%
    06:00 +15°C° 0 mm 1 mps 690 mmHg 58%
    07:00 +18°C° 0 mm 2 mps 691 mmHg 50%
    08:00 +21°C° 0 mm 2 mps 691 mmHg 42%
    09:00 +25°C° 0 mm 2 mps 692 mmHg 34%
    10:00 +26°C° 0 mm 2 mps 692 mmHg 30%
    11:00 +28°C° 0 mm 2 mps 692 mmHg 27%
    12:00 +29°C° 0 mm 3 mps 692 mmHg 24%
    13:00 +29°C° 0 mm 3 mps 691 mmHg 25%
    14:00 +29°C° 0 mm 3 mps 691 mmHg 26%
    15:00 +28°C° 0 mm 3 mps 691 mmHg 27%
    16:00 +26°C° 0 mm 3 mps 691 mmHg 36%
    17:00 +24°C° 0 mm 2 mps 690 mmHg 45%
    18:00 +20°C° 0 mm 2 mps 690 mmHg 54%
    19:00 +19°C° 0 mm 2 mps 690 mmHg 57%
    20:00 +18°C° 0 mm 1 mps 690 mmHg 59%
    21:00 +16°C° 0 mm 1 mps 690 mmHg 62%
    22:00 +16°C° 0 mm 1 mps 690 mmHg 61%
    23:00 +15°C° 0 mm 1 mps 690 mmHg 60%

    26 May, Saturday

    Time Temperature Precipitation Wind Pressure Humidity
    00:00 +15°C° 0 mm 1 mps 690 mmHg 60%
    01:00 +15°C° 0 mm 1 mps 690 mmHg 60%
    02:00 +15°C° 0 mm 1 mps 690 mmHg 60%
    03:00 +15°C° 0 mm 1 mps 690 mmHg 59%
    04:00 +15°C° 0 mm 1 mps 690 mmHg 62%
    05:00 +16°C° 0 mm 1 mps 690 mmHg 64%
    06:00 +16°C° 0 mm 1 mps 690 mmHg 66%
    07:00 +19°C° 0 mm 1 mps 691 mmHg 58%
    08:00 +21°C° 0 mm 1 mps 691 mmHg 50%
    09:00 +24°C° 0 mm 1 mps 692 mmHg 41%
    10:00 +25°C° 0 mm 1 mps 692 mmHg 39%
    11:00 +25°C° 0 mm 1 mps 691 mmHg 37%
    12:00 +26°C° 0 mm 2 mps 691 mmHg 35%
    13:00 +26°C° 0 mm 2 mps 691 mmHg 39%
    14:00 +25°C° 0 mm 2 mps 691 mmHg 42%
    15:00 +24°C° 0 mm 2 mps 690 mmHg 46%
    16:00 +23°C° 0 mm 2 mps 690 mmHg 51%
    17:00 +22°C° 0 mm 1 mps 690 mmHg 57%
    18:00 +21°C° 0 mm 1 mps 690 mmHg 62%
    19:00 +19°C° 0 mm 1 mps 690 mmHg 67%
    20:00 +16°C° 0 mm 1 mps 690 mmHg 71%
    21:00 +14°C° 0 mm 1 mps 690 mmHg 76%
    22:00 +14°C° 0 mm 1 mps 690 mmHg 75%
    23:00 +14°C° 0 mm 1 mps 690 mmHg 75%

    27 May, Sunday

    Time Temperature Precipitation Wind Pressure Humidity
    00:00 +14°C° 0 mm 1 mps 690 mmHg 75%
    01:00 +13°C° 0 mm 1 mps 689 mmHg 75%
    02:00 +13°C° 0 mm 1 mps 689 mmHg 75%
    03:00 +13°C° 0 mm 1 mps 689 mmHg 75%
    04:00 +14°C° 0 mm 1 mps 689 mmHg 74%
    05:00 +14°C° 0 mm 0 mps 690 mmHg 72%
    06:00 +15°C° 0 mm 0 mps 690 mmHg 71%
    07:00 +20°C° 0 mm 1 mps 690 mmHg 62%
    08:00 +22°C° 0 mm 1 mps 691 mmHg 53%
    09:00 +25°C° 0 mm 1 mps 691 mmHg 45%
    10:00 +25°C° 0 mm 1 mps 691 mmHg 42%
    11:00 +26°C° 0 mm 2 mps 690 mmHg 40%
    12:00 +27°C° 0 mm 2 mps 690 mmHg 38%
    13:00 +26°C° 0 mm 2 mps 689 mmHg 41%
    14:00 +26°C° 0 mm 2 mps 689 mmHg 44%
    15:00 +25°C° 0 mm 2 mps 689 mmHg 47%
    16:00 +23°C° 0.7 mm 2 mps 688 mmHg 59%
    17:00 +20°C° 0.7 mm 2 mps 688 mmHg 71%
    18:00 +19°C° 0.7 mm 1 mps 688 mmHg 82%
    19:00 +19°C° 1.2 mm 1 mps 688 mmHg 85%
    20:00 +18°C° 1.2 mm 1 mps 688 mmHg 88%
    21:00 +16°C° 1.2 mm 2 mps 687 mmHg 91%
    22:00 +16°C° 0.5 mm 2 mps 687 mmHg 92%
    23:00 +16°C° 0.5 mm 2 mps 686 mmHg 92%
    Show more